Regional Weather Roundup
Issued by NWS

Home | Current Version | Previous Version | Text Only | Print | Product List | Glossary On
Versions: 1 2 3 4 5 6 7 8 9 10 11 12 13 14 15 16 17 18 19 20 21 22 23 24 25 26 27 28 29 30 31 32 33 34 35 36 37 38 39 40 41 42 43 44 45 46 47 48 49 50
000
ASUS44 KOUN 281110
RWROK

WEATHER ROUNDUP FOR OKLAHOMA
NATIONAL WEATHER SERVICE NORMAN OK
600 AM CDT THU AUG 28 2014

NOTE: "FAIR" INDICATES FEW OR NO CLOUDS BELOW 12,000 FEET WITH NO
      SIGNIFICANT WEATHER AND/OR OBSTRUCTIONS TO VISIBILITY.

OKZ001>007-009>012-014-015-017-281200-
NORTHWEST OKLAHOMA AND THE PANHANDLE

CITY           SKY/WX    TMP DP  RH WIND       PRES   REMARKS
GAGE           PTCLDY    74  64  71 S17       29.95S
ENID/WOODRING  PTCLDY    70  64  83 SE7       29.94S
$$

OKZ016-021>023-033>039-044-045-281200-
SOUTHWEST OKLAHOMA

CITY           SKY/WX    TMP DP  RH WIND       PRES   REMARKS
LAWTON/REGL    CLEAR     73  63  70 SE5       29.96F
LAWTON/FT SILL CLEAR     72  64  75 S6        29.96S
FREDERICK      CLEAR     74  62  66 SE7       29.93S
CLINTON        CLOUDY    79  61  53 S16       29.99S
HOBART         MOCLDY    77  62  59 S13       29.97S
ALTUS AFB      CLOUDY    74  64  71 SE5       29.96S
$$

OKZ018>020-024>031-281200-
CENTRAL OKLAHOMA

CITY           SKY/WX    TMP DP  RH WIND       PRES   REMARKS
OKLAHOMA CITY  PTCLDY    69  64  84 S5        29.98S
OKC/WILEY POST CLEAR     74  64  71 S10       29.97F
OKC/TINKER AFB CLEAR     71  64  80 S10       29.98S
STILLWATER     CLEAR     73  65  75 S7        29.96S
GUTHRIE        CLEAR     73  65  75 S7        29.96S
$$

OKZ008-013-054>072-281200-
NORTHEAST OKLAHOMA

CITY           SKY/WX    TMP DP  RH WIND       PRES   REMARKS
TULSA          CLEAR     75  67  76 SE6       29.96S
TULSA/JONES    CLEAR     72  67  84 CALM      29.97S
PONCA CITY     PTCLDY    76  66  71 S5        29.96R
BARTLESVILLE   CLEAR     66  66 100 CALM      29.97S
MUSKOGEE       CLEAR     70  68  93 S5        29.99S
$$

OKZ032-040>043-046>053-073>077-281200-
SOUTH CENTRAL/SOUTHEAST OKLAHOMA

CITY           SKY/WX    TMP DP  RH WIND       PRES   REMARKS
ARDMORE/DWNTWN CLEAR     70  63  78 CALM      29.97F
MCALESTER      CLEAR     72  67  84 E3        29.99F
$$



USA.gov is the U.S. government's official web portal to all federal, state and local government web resources and services.